Flag for India Weather past 2 weeks in Thiruvananthapuram, Kerala, India

Now
88 °F

Passing clouds.


Feels Like: 94 °F
Forecast: 76 / 90 °F
Wind: 6 mph from Southwest

Location: Thiruvananthapuram

Current Time: Jan 31, 2015 at 1:10:01 PM

Latest Report: Jan 31, 2015 at 11:40 AM


Visibility: 4 mi

Pressure: 29.92 "Hg

Humidity: 59%

Dew point: 72 °F

Location of ThiruvananthapuramLocation

Historic Weather in Thiruvananthapuram — Graph

°F

Thiruvananthapuram temperature yesterday

Maximum temperature yesterday: 90 °F (at 2:40 PM)
Minimum temperature yesterday: 77 °F (at 6:40 AM)
Average temperature yesterday: 84 °F

Past Weeks' High & Low Weather Summary

 TemperatureHumidityPressure
High90 °F (Jan 16, 12:40 PM)89% (Jan 17, 4:40 AM)30.04 "Hg (Jan 17, 4:40 AM)
Low73 °F (Jan 17, 6:40 AM)49% (Jan 21, 10:40 AM)29.74 "Hg (Jan 28, 2:40 PM)
Average82 °F75%29.88 "Hg
* Reported Jan 16 11:40 AM — Jan 31 11:40 AM, Thiruvananthapuram, Weather by CustomWeather, © 2014

Note: Actual official high and low records may vary slightly from our data, if they occured in-between our weather recording intervals... More about our weather records

Advertising

Thiruvananthapuram weather history for previous 24 hours

 ConditionsComfort  
Time TempWeatherWind HumidityBarometerVisibility
11:40 AM
Jan 31
88 °FPassing clouds.6 mph59%29.92 "Hg4 mi
9:40 AM86 °FHaze.3 mph59%29.92 "Hg3 mi
8:40 AM84 °FScattered clouds.3 mph62%29.92 "Hg2 mi
7:40 AM81 °FScattered clouds.3 mph70%29.92 "Hg2 mi
6:40 AM77 °FHaze.No wind83%29.89 "Hg2 mi
5:40 AM77 °FHaze.5 mph83%29.86 "Hg2 mi
4:40 AM77 °FHaze.No wind89%29.83 "Hg2 mi
3:40 AM79 °FHaze.3 mph84%29.83 "Hg2 mi
2:40 AM79 °FHaze.No wind84%29.83 "Hg2 mi
1:40 AM79 °FHaze.No wind84%29.83 "Hg2 mi
11:40 PM
Jan 30
81 °FHaze.No wind79%29.86 "Hg2 mi
10:40 PM82 °FHaze.No wind74%29.89 "Hg2 mi
9:40 PM82 °FHaze.No wind74%29.89 "Hg2 mi
7:40 PM84 °FHaze.5 mph74%29.86 "Hg3 mi
6:40 PM86 °FHaze.3 mph70%29.86 "Hg3 mi
4:40 PM90 °FPassing clouds.6 mph67%29.83 "Hg4 mi
3:40 PM90 °FPassing clouds.6 mph67%29.83 "Hg4 mi
2:40 PM90 °FPassing clouds.3 mph67%29.83 "Hg4 mi
1:40 PM88 °FPassing clouds.8 mph70%29.86 "Hg4 mi
Weather by CustomWeather, © 2014

See weather overviewHow to use our weather pages